When you browse on this site, cookies collect data to enhance your experience and personalize the content and advertising you see.
Visit our Privacy Policy to learn more. By continuing to use the site, you agree to this use of cookies and data.
  • In Sweden
  • List of Countries
  • For 7 days
  • Water Temperature
  • Satellite Maps
  • Weather Map
  • Weather Widgets
  • user-avatar
    Login

    Hourly Weather Smolan

    Today, 21 November, Wednesday

    Time Temperature Precipitation Wind Pressure Humidity
    00:00 +5°C° 0.4 mm 2 mps 654 mmHg 96%
    01:00 +5°C° 0.4 mm 2 mps 653 mmHg 97%
    02:00 +5°C° 0.4 mm 2 mps 653 mmHg 97%
    03:00 +5°C° 0.4 mm 2 mps 653 mmHg 97%
    04:00 +5°C° 0.4 mm 2 mps 652 mmHg 97%
    05:00 +6°C° 0.4 mm 1 mps 652 mmHg 97%
    06:00 +7°C° 0.8 mm 1 mps 651 mmHg 97%
    07:00 +7°C° 0.8 mm 1 mps 651 mmHg 97%
    08:00 +7°C° 0.8 mm 1 mps 651 mmHg 97%
    09:00 +7°C° 0.8 mm 1 mps 651 mmHg 95%
    10:00 +8°C° 0.8 mm 1 mps 651 mmHg 94%
    11:00 +8°C° 0.8 mm 1 mps 651 mmHg 92%
    12:00 +9°C° 0.5 mm 1 mps 651 mmHg 90%
    13:00 +9°C° 0.5 mm 1 mps 651 mmHg 88%
    14:00 +9°C° 0.5 mm 1 mps 651 mmHg 85%
    15:00 +8°C° 0.8 mm 1 mps 651 mmHg 87%
    16:00 +7°C° 0.8 mm 1 mps 651 mmHg 89%
    17:00 +6°C° 0.8 mm 2 mps 651 mmHg 91%
    18:00 +5°C° 0.7 mm 2 mps 651 mmHg 91%
    19:00 +5°C° 0.7 mm 2 mps 652 mmHg 90%
    20:00 +4°C° 0.7 mm 2 mps 652 mmHg 90%
    21:00 +4°C° 0.5 mm 2 mps 652 mmHg 89%
    22:00 +3°C° 0.5 mm 2 mps 652 mmHg 88%
    23:00 +3°C° 0.5 mm 2 mps 653 mmHg 87%

    Tomorrow, 22 November, Thursday

    Time Temperature Precipitation Wind Pressure Humidity
    00:00 +2°C° 0.1 mm 2 mps 653 mmHg 86%
    01:00 +2°C° 0.1 mm 2 mps 653 mmHg 86%
    02:00 +2°C° 0.1 mm 2 mps 653 mmHg 85%
    03:00 +2°C° 0 mm 2 mps 654 mmHg 85%
    04:00 +2°C° 0 mm 2 mps 654 mmHg 85%
    05:00 +1°C° 0 mm 2 mps 654 mmHg 85%
    06:00 +1°C° 0 mm 2 mps 654 mmHg 84%
    07:00 +1°C° 0 mm 2 mps 655 mmHg 84%
    08:00 +1°C° 0 mm 2 mps 655 mmHg 84%
    09:00 +2°C° 0.1 mm 2 mps 656 mmHg 81%
    10:00 +3°C° 0.1 mm 2 mps 656 mmHg 79%
    11:00 +4°C° 0.1 mm 2 mps 657 mmHg 76%
    12:00 +4°C° 0.2 mm 2 mps 657 mmHg 77%
    13:00 +4°C° 0.2 mm 2 mps 657 mmHg 78%
    14:00 +4°C° 0.2 mm 2 mps 656 mmHg 78%
    15:00 +4°C° 0.2 mm 1 mps 657 mmHg 81%
    16:00 +4°C° 0.2 mm 1 mps 657 mmHg 84%
    17:00 +3°C° 0.2 mm 1 mps 657 mmHg 87%
    18:00 +3°C° 0.2 mm 1 mps 657 mmHg 88%
    19:00 +3°C° 0.2 mm 1 mps 657 mmHg 89%
    20:00 +2°C° 0.2 mm 1 mps 658 mmHg 90%
    21:00 +2°C° 0.1 mm 1 mps 658 mmHg 91%
    22:00 +2°C° 0.1 mm 1 mps 658 mmHg 91%
    23:00 +2°C° 0.1 mm 1 mps 658 mmHg 92%

    Day after tomorrow, 23 November, Friday

    Time Temperature Precipitation Wind Pressure Humidity
    00:00 +1°C° 0.1 mm 1 mps 658 mmHg 92%
    01:00 +1°C° 0.1 mm 1 mps 658 mmHg 92%
    02:00 +1°C° 0.1 mm 1 mps 658 mmHg 92%
    03:00 +1°C° 0 mm 1 mps 658 mmHg 92%
    04:00 0°C° 0 mm 1 mps 658 mmHg 92%
    05:00 0°C° 0 mm 1 mps 658 mmHg 92%
    06:00 0°C° 0 mm 1 mps 659 mmHg 92%
    07:00 0°C° 0 mm 1 mps 659 mmHg 91%
    08:00 0°C° 0 mm 1 mps 659 mmHg 90%
    09:00 +1°C° 0 mm 1 mps 660 mmHg 85%
    10:00 +3°C° 0 mm 1 mps 661 mmHg 79%
    11:00 +4°C° 0 mm 1 mps 661 mmHg 74%
    12:00 +5°C° 0 mm 1 mps 661 mmHg 73%
    13:00 +5°C° 0 mm 1 mps 661 mmHg 72%
    14:00 +5°C° 0 mm 1 mps 661 mmHg 71%
    15:00 +4°C° 0 mm 1 mps 661 mmHg 75%
    16:00 +3°C° 0 mm 1 mps 661 mmHg 79%
    17:00 +2°C° 0 mm 1 mps 660 mmHg 83%
    18:00 +2°C° 0 mm 1 mps 660 mmHg 83%
    19:00 +1°C° 0 mm 1 mps 660 mmHg 84%
    20:00 +1°C° 0 mm 1 mps 660 mmHg 84%
    21:00 0°C° 0 mm 1 mps 660 mmHg 83%
    22:00 0°C° 0 mm 1 mps 660 mmHg 82%
    23:00 -1°C° 0 mm 1 mps 660 mmHg 81%

    24 November, Saturday

    Time Temperature Precipitation Wind Pressure Humidity
    00:00 -1°C° 0 mm 1 mps 660 mmHg 80%
    01:00 -1°C° 0 mm 1 mps 660 mmHg 79%
    02:00 -1°C° 0 mm 1 mps 660 mmHg 78%
    03:00 -1°C° 0 mm 1 mps 660 mmHg 78%
    04:00 -1°C° 0 mm 1 mps 659 mmHg 78%
    05:00 -1°C° 0 mm 1 mps 659 mmHg 78%
    06:00 -1°C° 0 mm 1 mps 659 mmHg 77%
    07:00 -1°C° 0 mm 1 mps 659 mmHg 76%
    08:00 -1°C° 0 mm 1 mps 659 mmHg 76%
    09:00 +1°C° 0 mm 1 mps 659 mmHg 70%
    10:00 +3°C° 0 mm 1 mps 660 mmHg 64%
    11:00 +4°C° 0 mm 1 mps 660 mmHg 58%
    12:00 +5°C° 0 mm 1 mps 660 mmHg 57%
    13:00 +5°C° 0 mm 1 mps 659 mmHg 57%
    14:00 +6°C° 0 mm 1 mps 659 mmHg 57%
    15:00 +4°C° 0 mm 1 mps 659 mmHg 63%
    16:00 +3°C° 0 mm 1 mps 658 mmHg 68%
    17:00 +2°C° 0 mm 1 mps 658 mmHg 74%
    18:00 +2°C° 0 mm 1 mps 657 mmHg 76%
    19:00 +1°C° 0 mm 1 mps 657 mmHg 78%
    20:00 0°C° 0 mm 0 mps 657 mmHg 81%
    21:00 +1°C° 0 mm 1 mps 657 mmHg 81%
    22:00 0°C° 0 mm 1 mps 657 mmHg 82%
    23:00 0°C° 0 mm 1 mps 657 mmHg 83%

    25 November, Sunday

    Time Temperature Precipitation Wind Pressure Humidity
    00:00 0°C° 0 mm 1 mps 656 mmHg 84%
    01:00 0°C° 0 mm 1 mps 656 mmHg 84%
    02:00 0°C° 0 mm 1 mps 656 mmHg 85%
    03:00 0°C° 0 mm 1 mps 656 mmHg 84%
    04:00 0°C° 0 mm 1 mps 655 mmHg 84%
    05:00 0°C° 0 mm 1 mps 655 mmHg 83%
    06:00 0°C° 0 mm 1 mps 655 mmHg 81%
    07:00 +1°C° 0 mm 1 mps 655 mmHg 78%
    08:00 +1°C° 0 mm 1 mps 655 mmHg 76%
    09:00 +3°C° 0 mm 1 mps 656 mmHg 70%
    10:00 +5°C° 0 mm 1 mps 656 mmHg 64%
    11:00 +7°C° 0 mm 1 mps 657 mmHg 59%
    12:00 +7°C° 0 mm 1 mps 656 mmHg 59%
    13:00 +8°C° 0 mm 1 mps 656 mmHg 58%
    14:00 +7°C° 0 mm 2 mps 655 mmHg 58%
    15:00 +7°C° 0 mm 1 mps 655 mmHg 65%
    16:00 +6°C° 0 mm 1 mps 654 mmHg 73%
    17:00 +4°C° 0 mm 1 mps 654 mmHg 80%
    18:00 +4°C° 0 mm 1 mps 654 mmHg 82%
    19:00 +3°C° 0 mm 1 mps 654 mmHg 83%
    20:00 +3°C° 0 mm 1 mps 653 mmHg 85%
    21:00 +3°C° 0 mm 1 mps 653 mmHg 85%
    22:00 +3°C° 0 mm 1 mps 653 mmHg 85%
    23:00 +3°C° 0 mm 1 mps 653 mmHg 85%

    26 November, Monday

    Time Temperature Precipitation Wind Pressure Humidity
    00:00 +3°C° 0 mm 1 mps 653 mmHg 85%
    01:00 +3°C° 0 mm 1 mps 653 mmHg 84%
    02:00 +3°C° 0 mm 1 mps 652 mmHg 84%
    03:00 +3°C° 0.4 mm 1 mps 652 mmHg 85%
    04:00 +3°C° 0.4 mm 1 mps 652 mmHg 86%
    05:00 +3°C° 0.4 mm 1 mps 651 mmHg 87%
    06:00 +3°C° 0.7 mm 1 mps 651 mmHg 88%
    07:00 +4°C° 0.7 mm 1 mps 651 mmHg 89%
    08:00 +4°C° 0.7 mm 1 mps 651 mmHg 90%
    09:00 +4°C° 0.3 mm 1 mps 651 mmHg 87%
    10:00 +5°C° 0.3 mm 1 mps 652 mmHg 85%
    11:00 +6°C° 0.3 mm 1 mps 652 mmHg 82%
    12:00 +7°C° 0 mm 1 mps 652 mmHg 79%
    13:00 +8°C° 0 mm 1 mps 651 mmHg 77%
    14:00 +8°C° 0 mm 1 mps 651 mmHg 74%
    15:00 +7°C° 0 mm 1 mps 651 mmHg 79%
    16:00 +6°C° 0 mm 1 mps 651 mmHg 84%
    17:00 +5°C° 0 mm 1 mps 650 mmHg 89%
    18:00 +5°C° 0 mm 1 mps 651 mmHg 90%
    19:00 +3°C° 0 mm 0 mps 651 mmHg 91%
    20:00 +3°C° 0 mm 0 mps 651 mmHg 92%
    21:00 +4°C° 0 mm 1 mps 651 mmHg 91%
    22:00 +4°C° 0 mm 1 mps 651 mmHg 91%
    23:00 +4°C° 0 mm 1 mps 651 mmHg 91%
    Show more